Regional Weather Roundup
Issued by NWS

Home | Current Version | Previous Version | Text Only | Print | Product List | Glossary Off
Versions: 1 2 3 4 5 6 7 8 9 10 11 12 13 14 15 16 17 18 19 20 21 22 23 24 25 26 27 28 29 30 31 32 33 34 35 36 37 38 39 40 41 42 43 44 45 46 47 48 49 50

000
ASUS43 KMPX 231001
RWRMN
WEATHER ROUNDUP FOR MINNESOTA
NATIONAL WEATHER SERVICE TWIN CITIES/CHANHASSEN MN
500 AM CDT TUE SEP 23 2014


NOTE: "FAIR" INDICATES FEW OR NO CLOUDS BELOW 12,000 FEET WITH NO
SIGNIFICANT WEATHER AND/OR OBSTRUCTIONS TO VISIBILITY. N/A MEANS
CURRENT SKY AND/OR WEATHER CONDITIONS ARE NOT AVAILABLE.

MNZ060>063-068>070-231100-
   Twin Cities Metro

CITY           SKY/WX    TMP DP  RH WIND       PRES   REMARKS
TWIN CITIES    CLEAR     53  49  86 CALM      30.19R
ST PAUL        CLEAR     51  50  96 CALM      30.20R
CRYSTAL        CLEAR     48  44  86 CALM      30.18R
BLAINE         CLEAR     52  52 100 S5        30.18R
LAKEVILLE      CLEAR     46  46 100 S3        30.19S
EDEN PRAIRIE   CLEAR     51  49  92 CALM      30.17S
SOUTH ST PAUL  CLEAR     50  48  93 CALM      30.19R
LAKE ELMO      FAIR      45  45 100 CALM      30.20S
$$
MNZ001>005-007-008-013>017-022>024-027-028-231100-
   Northwest Minnesota

CITY           SKY/WX    TMP DP  RH WIND       PRES   REMARKS
BEMIDJI        CLEAR     44  44 100 E5        30.11S
HALLOCK        CLEAR     52  48  87 SE8       30.01S
ROSEAU         CLEAR     50  45  81 S6        30.06R
WARROAD        CLEAR     52  46  82 S3        30.07S
THIEF RVR FALL CLEAR     52  46  82 SE9       30.05S
CROOKSTON      CLEAR     52  48  87 SE8       30.04S
FOSSTON        CLEAR     52  46  82 SE5       30.08S
DETROIT LAKES  CLEAR     52  50  93 SE8       30.10R
MOORHEAD       CLEAR     57  52  82 S9        30.06R
PARK RAPIDS    CLEAR     48  46  93 SE6       30.12R
MAHNOMEN       FAIR      53  48  84 SE8       30.07S
$$
MNZ006-009>011-018-025>026-231100-
   North Central Minnesota

CITY           SKY/WX    TMP DP  RH WIND       PRES   REMARKS
BAUDETTE       CLEAR     48  46  93 CALM      30.08S
FLAG ISLAND    CLEAR     57  54  88 S7        30.06R
INTL FALLS     CLEAR     38  38 100 SE3       30.12R
WASKISH        CLEAR     52  48  87 CALM      30.10S
BIG FORK       MOCLDY    39  39 100 CALM      30.14S FOG
LONGVILLE      CLEAR     39  39 100 CALM      30.14R
GRAND RAPIDS   CLEAR     45  41  87 S6        30.15R
CRANE LAKE     CLEAR     39  37  93 CALM      30.16R
ORR            CLEAR     48  45  87 CALM      30.13R
COOK           CLEAR     41  41 100 CALM      30.15S
WALKER         FAIR      47  46  96 CALM      30.12S
$$
MNZ012-019>021-037-231100-
   Northeast Minnesota

CITY           SKY/WX    TMP DP  RH WIND       PRES   REMARKS
DULUTH         CLEAR     54  47  77 SW5       30.17S
ELY            CLEAR     43  43 100 CALM      30.16S
HIBBING        CLOUDY    39  37  92 CALM      30.17R FOG
EVELETH        FOG       36  36 100 CALM      30.18R VSB 1/2
DULUTH HARBOR  CLEAR     54  52  94 CALM      30.17R
TWO HARBORS    CLEAR     46  43  87 CALM      30.15R
SILVER BAY     CLEAR     46  46 100 CALM      30.15R
GRAND MARAIS     N/A     52  49  89 W3        30.13R
G MARAIS ARPRT CLEAR     52  45  76 NW3       30.17R
$$
MNZ029>031-032-039>041-046>048-054>057-064-231100-
   West Central Minnesota

CITY           SKY/WX    TMP DP  RH WIND       PRES   REMARKS
FERGUS FALLS   CLEAR     55  46  71 SE10      30.08F
WHEATON        CLEAR     50  46  87 SE10      30.09R
MORRIS         CLEAR     50  48  93 SE8       30.09S
ALEXANDRIA     CLEAR     51  47  86 SE9       30.13S
ELBOW LAKE     FAIR      53  48  83 SE9       30.09S
WADENA         CLEAR     45  45 100 SE3       30.12R
GLENWOOD       CLEAR     48  46  93 SE8       30.13S
APPLETON       CLEAR     54  48  82 SE7       30.09S
BENSON         CLEAR     52  46  82 S7        30.12S
ORTONVILLE     CLEAR     52  46  82 SE8       30.08S
MADISON        CLEAR     52  48  87 S6        30.10S
WILLMAR        FAIR      48  46  93 SE6       30.16R
$$
MNZ033>034-036-042>043-049>051-058-059-231100-
   Central Minnesota

CITY           SKY/WX    TMP DP  RH WIND       PRES   REMARKS
ST CLOUD       CLEAR     47  45  93 SE3       30.17R FOG
SAUK CENTRE    FAIR      46  45  95 SE5       30.14S
PAYNESVILLE    CLEAR     50  47  90 E7        30.16S
AITKIN         HAZE      43  37  81 CALM      30.14S VSB<1/4
PINE RIVER     FOG       45  45 100 CALM      30.17S VSB 1/2
BRAINERD       CLEAR     45  44  97 CALM      30.16R FOG
STAPLES        CLEAR     45  45 100 SE3       30.13S
LONG PRAIRIE   FAIR      46  45  93 SE3       30.14S
LITTLE FALLS   CLEAR     43  41  93 CALM      30.16R
LITCHFIELD     CLEAR     54  52  94 CALM      30.17S
BUFFALO        CLEAR     51  47  86 CALM      30.18S
MAPLE LAKE     CLEAR     50  49  98 CALM      30.18R
$$
MNZ037-044-045-052-053-231100-
   East Central Minnesota

CITY           SKY/WX    TMP DP  RH WIND       PRES   REMARKS
PRINCETON      CLEAR     46  46 100 CALM      30.17R
MORA           CLEAR     41  41 100 CALM      30.19R FOG
CAMBRIDGE      CLEAR     52  45  76 CALM      30.16R
RUSH CITY      PTCLDY    46  45  97 CALM      30.18S
MOOSE LAKE     FOG       41  39  93 CALM      30.16R VSB 1/4
HINCKLEY       FAIR      41  41 100 CALM      30.18R
CLOQUET        CLEAR     45  43  93 CALM      30.17R
MCGREGOR       CLEAR     43  41  93 CALM      30.17R
$$
MNZ071>073-080-081-089-090-097-098-231100-
   Southwest Minnesota

CITY           SKY/WX    TMP DP  RH WIND       PRES   REMARKS
MONTEVIDEO     CLEAR     52  48  87 S7        30.12S
GRANITE FALLS  CLEAR     49  47  92 SE6       30.14S
CANBY          CLEAR     48  47  94 SE7       30.11S
MARSHALL       CLEAR     52  45  76 S7        30.10F
REDWOOD FALLS  CLEAR     49  46  90 SE6       30.15R
OLIVIA         CLEAR     50  45  81 SE6       30.14S
PIPESTONE      CLOUDY    54  48  82 S6        30.12S
WINDOM         CLEAR     54  48  82 S7        30.16S
WORTHINGTON    MOCLDY    54  46  76 S6        30.16S
JACKSON        PTCLDY    52  46  82 S7        30.18R
TRACY          PTCLDY    54  48  81 S10       30.13S
SLAYTON        MOCLDY    46  46  98 CALM      30.15S
$$
MNZ065>067-074>077-082>085-091>093-231100-
   South Central Minnesota

CITY           SKY/WX    TMP DP  RH WIND       PRES   REMARKS
MANKATO        CLEAR     52  43  71 S8        30.19R
NEW ULM        CLEAR     48  48 100 SE6       30.16S
ST JAMES       CLEAR     46  45  93 SE3       30.19R
FAIRMONT       CLEAR     45  39  81 S7        30.19R
GLENCOE        CLEAR     50  46  84 CALM      30.17S
FARIBAULT      CLEAR     46  41  81 CALM      30.20S
OWATONNA       CLEAR     48  45  87 CALM      30.20S
WASECA         CLEAR     45  41  87 CALM      30.21S
ALBERT LEA     CLEAR     52  48  87 CALM      30.21S
$$
MNZ078>079-086>088-094>096-231100-
   Southeast Minnesota

CITY           SKY/WX    TMP DP  RH WIND       PRES   REMARKS
ROCHESTER      CLEAR     47  45  93 S7        30.23S
RED WING       CLEAR     46  46 100 SE3       30.20R
STANTON        CLEAR     49  46  87 S3        30.19R
DODGE CENTER   PTCLDY    48  46  93 S5        30.22R
WINONA         FOG       52  50  93 CALM      30.24R VSB<1/4
AUSTIN         CLEAR     45  43  93 SE3       30.22S
PRESTON        CLEAR     47  47 100 S5        30.24S
$$
ABBREVIATIONS USED IN REMARKS
   TC - TEMPERATURES IN CELSIUS
  WCI - WIND CHILL INDEX
   HX - HEAT INDEX
  VSB - VISIBILITY
$$



USA.gov is the U.S. government's official web portal to all federal, state and local government web resources and services.